WESTFORD NEEDLES, 2530

Orbit data source: Space-Track

WESTFORD NEEDLES, 2530 is space debris in LEO originally from a launch on Thu, 09 May 1963 UTC launched from the Air Force Western Test Range (AFWTR). Debris objects in space refer to the collection of defunct objects orbiting the Earth. Examples of debris include non-operational satellites, rocket bodies, and fragments generated from explosions, collisions, or faulty payload assembly.

Loading next visibility...
Identifier
2530, 1963-014AJ
Orbit
LEO
Country
Flag of USUS
Related business
Manufacturer
Unknown
Mission
Spacecraft
Bus & Motor
Unknown
Mass
Unknown
Launch date (UTC)
1963-05-09 (63 years ago)
Launch vehicle
Unknown
Launch site
Air Force Western Test Range (AFWTR)
Object type
Payload
Rocket body
Debris
Shape & HBR
Unknown shape, 1.1 m
Radar Cross Section
Medium (>0.1 m² and <1 m²)

Expand to show TLE details & history
Last TLE update: 1 week ago

TLE from 1 week ago
0 WESTFORD NEEDLES
1 02530U 63014AJ  25305.63255425  .00000087  00000-0  34138-1 0  9996
2 02530  87.6497 174.3023 0455812  30.6782 353.7771  8.68198253919859
Epoch: 2025-11-01T15:10Z
TLE epoch observation values (Epoch: 2025-11-01T15:10:52.687Z)
Latitude
23.8509°
Longitude
-93.54164°
Altitude
3,171.011 km
Speed
6.608 km/s
True Right ascension
11h 41m 21s
True Declination
23° 45' 22"
Sunlit
Object was in daylight at epoch
Visualization orbit readout
Latitude
Unknown
Longitude
Unknown
Altitude
Unknown
Speed
Unknown
Apparent Right ascension
Unknown
Apparent Declination
Unknown
Sunlit
N/A
Visualization observer readout
Local Sidereal Time
07:25:51
Azimuth
Unknown
Elevation
Unknown
Doppler factor
Unknown
Orbital elements
Apogee altitude
4,075.125 km
Perigee altitude
3,163.723 km
Semi-major axis
9,997.561 km
Eccentricity
0.04558
Inclination
87.6497°
RAAN
174.3023°
Arg. of periapsis
30.6782°
True anomaly
353.17702°
Mean anomaly
353.7771°
Eccentric anomaly
353.48058°
Mean motion
2.17121 °/min
Orbital period
165.81 mins
BSTAR
0.034138
Loading maneuver chart data...
Computing Atmospheric mass density...

Documentation

Showing up to 5 results
|